When you browse on this site, cookies collect data to enhance your experience and personalize the content and advertising you see.
Visit our Privacy Policy to learn more. By continuing to use the site, you agree to this use of cookies and data.
  • In Hungary
  • List of Countries
  • For 7 days
  • Water Temperature
  • Satellite Maps
  • Weather Map
  • News
  • Weather Widgets
  • user-avatar
    Login

    Hourly Weather Bismarck

    Today, 22 February, Friday

    Time Temperature Precipitation Wind Pressure Humidity
    00:00 -20°C° 0 mm 2 mps 723 mmHg 93%
    01:00 -20°C° 0 mm 2 mps 723 mmHg 94%
    02:00 -19°C° 0 mm 1 mps 723 mmHg 94%
    03:00 -19°C° 0 mm 1 mps 723 mmHg 94%
    04:00 -19°C° 0 mm 1 mps 723 mmHg 94%
    05:00 -19°C° 0 mm 1 mps 722 mmHg 93%
    06:00 -18°C° 0 mm 1 mps 723 mmHg 93%
    07:00 -18°C° 0 mm 1 mps 723 mmHg 92%
    08:00 -17°C° 0 mm 1 mps 723 mmHg 91%
    09:00 -15°C° 0 mm 1 mps 722 mmHg 90%
    10:00 -16°C° 0 mm 2 mps 722 mmHg 88%
    11:00 -14°C° 0 mm 2 mps 722 mmHg 86%
    12:00 -13°C° 0.1 mm 2 mps 721 mmHg 89%
    13:00 -12°C° 0.1 mm 2 mps 720 mmHg 91%
    14:00 -12°C° 0.1 mm 3 mps 720 mmHg 93%
    15:00 -12°C° 0.2 mm 3 mps 719 mmHg 94%
    16:00 -10°C° 0.2 mm 2 mps 719 mmHg 95%
    17:00 -10°C° 0.2 mm 2 mps 718 mmHg 96%
    18:00 -10°C° 0.1 mm 2 mps 718 mmHg 96%
    19:00 -12°C° 0.1 mm 2 mps 718 mmHg 96%
    20:00 -12°C° 0.1 mm 2 mps 718 mmHg 97%
    21:00 -12°C° 0.1 mm 2 mps 717 mmHg 97%
    22:00 -10°C° 0.1 mm 1 mps 717 mmHg 97%
    23:00 -10°C° 0.1 mm 1 mps 716 mmHg 97%

    Tomorrow, 23 February, Saturday

    Time Temperature Precipitation Wind Pressure Humidity
    00:00 -11°C° 0 mm 1 mps 716 mmHg 96%
    01:00 -11°C° 0 mm 1 mps 716 mmHg 96%
    02:00 -11°C° 0 mm 1 mps 716 mmHg 96%
    03:00 -12°C° 0 mm 1 mps 715 mmHg 96%
    04:00 -13°C° 0 mm 1 mps 715 mmHg 96%
    05:00 -14°C° 0 mm 1 mps 714 mmHg 97%
    06:00 -13°C° 0 mm 1 mps 714 mmHg 96%
    07:00 -13°C° 0 mm 1 mps 715 mmHg 95%
    08:00 -13°C° 0 mm 1 mps 715 mmHg 94%
    09:00 -11°C° 0 mm 1 mps 715 mmHg 92%
    10:00 -10°C° 0 mm 1 mps 715 mmHg 90%
    11:00 -8°C° 0 mm 1 mps 715 mmHg 88%
    12:00 -7°C° 0 mm 1 mps 714 mmHg 88%
    13:00 -7°C° 0 mm 2 mps 714 mmHg 88%
    14:00 -8°C° 0 mm 3 mps 714 mmHg 88%
    15:00 -8°C° 0 mm 3 mps 714 mmHg 89%
    16:00 -9°C° 0 mm 3 mps 714 mmHg 90%
    17:00 -10°C° 0 mm 3 mps 714 mmHg 91%
    18:00 -12°C° 0 mm 4 mps 714 mmHg 91%
    19:00 -13°C° 0 mm 5 mps 715 mmHg 90%
    20:00 -15°C° 0 mm 6 mps 715 mmHg 90%
    21:00 -16°C° 0 mm 6 mps 716 mmHg 90%
    22:00 -17°C° 0 mm 6 mps 716 mmHg 89%
    23:00 -20°C° 0 mm 7 mps 716 mmHg 89%

    Day after tomorrow, 24 February, Sunday

    Time Temperature Precipitation Wind Pressure Humidity
    00:00 -20°C° 0 mm 7 mps 717 mmHg 89%
    01:00 -20°C° 0 mm 7 mps 718 mmHg 88%
    02:00 -20°C° 0 mm 7 mps 718 mmHg 88%
    03:00 -19°C° 0.1 mm 7 mps 719 mmHg 88%
    04:00 -19°C° 0.1 mm 7 mps 720 mmHg 87%
    05:00 -19°C° 0.1 mm 7 mps 721 mmHg 87%
    06:00 -20°C° 0 mm 7 mps 721 mmHg 87%
    07:00 -21°C° 0 mm 7 mps 722 mmHg 87%
    08:00 -23°C° 0 mm 7 mps 723 mmHg 87%
    09:00 -24°C° 0 mm 7 mps 724 mmHg 87%
    10:00 -23°C° 0 mm 6 mps 725 mmHg 86%
    11:00 -24°C° 0 mm 6 mps 726 mmHg 86%
    12:00 -24°C° 0 mm 6 mps 726 mmHg 85%
    13:00 -24°C° 0 mm 6 mps 726 mmHg 84%
    14:00 -24°C° 0 mm 5 mps 726 mmHg 83%
    15:00 -24°C° 0 mm 4 mps 726 mmHg 85%
    16:00 -24°C° 0 mm 3 mps 726 mmHg 87%
    17:00 -24°C° 0 mm 2 mps 725 mmHg 89%
    18:00 -25°C° 0 mm 2 mps 726 mmHg 90%
    19:00 -26°C° 0 mm 2 mps 726 mmHg 91%
    20:00 -27°C° 0 mm 2 mps 726 mmHg 92%
    21:00 -27°C° 0 mm 2 mps 726 mmHg 92%
    22:00 -28°C° 0 mm 2 mps 726 mmHg 92%
    23:00 -25°C° 0 mm 1 mps 726 mmHg 92%

    25 February, Monday

    Time Temperature Precipitation Wind Pressure Humidity
    00:00 -25°C° 0 mm 1 mps 726 mmHg 91%
    01:00 -25°C° 0 mm 1 mps 726 mmHg 91%
    02:00 -25°C° 0 mm 1 mps 726 mmHg 91%
    03:00 -24°C° 0 mm 1 mps 726 mmHg 91%
    04:00 -24°C° 0 mm 1 mps 725 mmHg 90%
    05:00 -24°C° 0 mm 1 mps 725 mmHg 90%
    06:00 -24°C° 0 mm 1 mps 726 mmHg 89%
    07:00 -23°C° 0 mm 1 mps 726 mmHg 88%
    08:00 -23°C° 0 mm 1 mps 726 mmHg 87%
    09:00 -22°C° 0 mm 1 mps 726 mmHg 84%
    10:00 -21°C° 0 mm 1 mps 726 mmHg 82%
    11:00 -20°C° 0 mm 1 mps 725 mmHg 79%
    12:00 -19°C° 0 mm 1 mps 725 mmHg 79%
    13:00 -19°C° 0 mm 1 mps 725 mmHg 78%
    14:00 -20°C° 0 mm 2 mps 724 mmHg 77%
    15:00 -20°C° 0 mm 2 mps 724 mmHg 81%
    16:00 -20°C° 0 mm 2 mps 723 mmHg 85%
    17:00 -20°C° 0 mm 2 mps 723 mmHg 88%
    18:00 -23°C° 0.1 mm 3 mps 723 mmHg 90%
    19:00 -23°C° 0.1 mm 3 mps 723 mmHg 92%
    20:00 -23°C° 0.1 mm 3 mps 723 mmHg 94%
    21:00 -23°C° 0.4 mm 3 mps 722 mmHg 94%
    22:00 -23°C° 0.4 mm 4 mps 722 mmHg 95%
    23:00 -23°C° 0.4 mm 4 mps 721 mmHg 95%

    26 February, Tuesday

    Time Temperature Precipitation Wind Pressure Humidity
    00:00 -23°C° 0.3 mm 4 mps 721 mmHg 95%
    01:00 -23°C° 0.3 mm 4 mps 720 mmHg 95%
    02:00 -23°C° 0.3 mm 4 mps 719 mmHg 95%
    03:00 -23°C° 0.3 mm 4 mps 719 mmHg 95%
    04:00 -23°C° 0.3 mm 4 mps 719 mmHg 95%
    05:00 -23°C° 0.3 mm 4 mps 718 mmHg 95%
    06:00 -23°C° 0.3 mm 4 mps 718 mmHg 94%
    07:00 -22°C° 0.3 mm 3 mps 718 mmHg 94%
    08:00 -22°C° 0.3 mm 3 mps 718 mmHg 94%
    09:00 -21°C° 0.1 mm 3 mps 719 mmHg 92%
    10:00 -18°C° 0.1 mm 2 mps 719 mmHg 90%
    11:00 -16°C° 0.1 mm 1 mps 719 mmHg 88%
    12:00 -17°C° 0 mm 2 mps 720 mmHg 88%
    13:00 -17°C° 0 mm 3 mps 720 mmHg 87%
    14:00 -18°C° 0 mm 4 mps 720 mmHg 86%
    15:00 -19°C° 0 mm 4 mps 720 mmHg 87%
    16:00 -19°C° 0 mm 4 mps 721 mmHg 88%
    17:00 -19°C° 0 mm 3 mps 721 mmHg 88%
    18:00 -22°C° 0 mm 4 mps 722 mmHg 89%
    19:00 -23°C° 0 mm 4 mps 723 mmHg 90%
    20:00 -24°C° 0 mm 4 mps 724 mmHg 91%
    21:00 -24°C° 0 mm 4 mps 724 mmHg 91%
    22:00 -24°C° 0 mm 4 mps 724 mmHg 91%
    23:00 -25°C° 0 mm 4 mps 724 mmHg 91%

    27 February, Wednesday

    Time Temperature Precipitation Wind Pressure Humidity
    00:00 -25°C° 0 mm 4 mps 725 mmHg 91%
    01:00 -25°C° 0 mm 4 mps 725 mmHg 91%
    02:00 -26°C° 0 mm 4 mps 725 mmHg 92%
    03:00 -26°C° 0 mm 4 mps 725 mmHg 91%
    04:00 -26°C° 0 mm 3 mps 725 mmHg 91%
    05:00 -26°C° 0 mm 3 mps 725 mmHg 91%
    06:00 -26°C° 0 mm 3 mps 725 mmHg 90%
    07:00 -25°C° 0 mm 3 mps 725 mmHg 89%
    08:00 -25°C° 0 mm 3 mps 725 mmHg 88%
    09:00 -24°C° 0 mm 3 mps 725 mmHg 86%
    10:00 -22°C° 0 mm 3 mps 725 mmHg 84%
    11:00 -19°C° 0 mm 3 mps 725 mmHg 82%
    12:00 -18°C° 0 mm 3 mps 725 mmHg 81%
    13:00 -17°C° 0 mm 3 mps 724 mmHg 81%
    14:00 -16°C° 0 mm 3 mps 724 mmHg 80%
    15:00 -15°C° 0 mm 2 mps 723 mmHg 83%
    16:00 -15°C° 0 mm 2 mps 723 mmHg 85%
    17:00 -15°C° 0 mm 2 mps 722 mmHg 88%
    18:00 -16°C° 0 mm 2 mps 722 mmHg 88%
    19:00 -17°C° 0 mm 2 mps 722 mmHg 88%
    20:00 -19°C° 0 mm 2 mps 722 mmHg 87%
    21:00 -19°C° 0 mm 2 mps 721 mmHg 88%
    22:00 -19°C° 0 mm 2 mps 721 mmHg 88%
    23:00 -19°C° 0 mm 2 mps 721 mmHg 88%
    Show more